This is the latest recevied weather packets stored in our database for station/object AA7VG. If no packets are shown the sender has not sent any weather packets the latest 10 day(s).
| Time | Temp. | Humidity | Pressure | Rain* | Wind** | Luminosity | Snow |
|---|---|---|---|---|---|---|---|
| 1777479302 | 7.78° C | 63% | 1021.5 hPa | 0 mm | - | - | - |
| 1777478998 | 7.78° C | 64% | 1021.5 hPa | 0 mm | - | - | - |
| 1777478695 | 7.22° C | 65% | 1021.5 hPa | 0 mm | - | - | - |
| 1777478391 | 6.67° C | 67% | 1021.6 hPa | 0 mm | - | - | - |
| 1777478088 | 6.67° C | 68% | 1021.2 hPa | 0 mm | - | - | - |
| 1777477784 | 6.67° C | 67% | 1021.5 hPa | 0 mm | - | - | - |
| 1777477480 | 6.67° C | 69% | 1021.5 hPa | 0 mm | - | - | - |
| 1777477177 | 6.67° C | 71% | 1021.2 hPa | 0 mm | - | - | - |
| 1777476873 | 6.67° C | 70% | 1021.3 hPa | 0 mm | - | - | - |
| 1777476572 | 6.11° C | 72% | 1021.5 hPa | 0 mm | - | - | - |
| 1777476267 | 6.11° C | 70% | 1021.5 hPa | 0 mm | - | - | - |
| 1777475963 | 6.11° C | 71% | 1021.2 hPa | 0 mm | - | - | - |
| 1777475660 | 6.11° C | 71% | 1021.5 hPa | 0 mm | - | - | - |
| 1777475356 | 6.11° C | 72% | 1021.3 hPa | 0 mm | - | - | - |
| 1777475051 | 5.56° C | 75% | 1021.1 hPa | 0 mm | - | - | - |
| 1777474748 | 5.56° C | 71% | 1021.1 hPa | 0 mm | - | - | - |
| 1777474444 | 5.56° C | 73% | 1021.2 hPa | 0 mm | - | - | - |
| 1777474141 | 5° C | 73% | 1021.1 hPa | 0 mm | - | - | - |
| 1777473839 | 5° C | 76% | 1021 hPa | 0 mm | - | - | - |
| 1777473535 | 5° C | 75% | 1021.1 hPa | 0 mm | - | - | - |
| 1777473231 | 5° C | 74% | 1021.1 hPa | 0 mm | - | - | - |
| 1777472927 | 4.44° C | 74% | 1021 hPa | 0 mm | - | - | - |
| 1777472624 | 4.44° C | 73% | 1021.2 hPa | 0 mm | - | - | - |
| 1777472321 | 4.44° C | 75% | 1021 hPa | 0 mm | - | - | - |
| 1777472018 | 4.44° C | 75% | 1021 hPa | 0 mm | - | - | - |
* Rain latest hour (hover to see other rain measurements)
** Current wind speed in m/s (hover to see current wind gust speed)